Weather History for Wahoo, NE

Change the Weather History Date:

Wednesday, August 8, 2012

  Actual Average Record
Temperature  
Mean Temperature 80 °F -  
Max Temperature 95 °F 88 °F 101 °F (1988)
Min Temperature 66 °F 63 °F 45 °F (1989)
Cooling Degree Days 16    
Growing Degree Days 30 (Base 50)    
Moisture  
Dew Point 64 °F    
Average Humidity 66    
Maximum Humidity 90    
Minimum Humidity 34    
Precipitation  
Precipitation 0.04 in - - ()
Sea Level Pressure  
Sea Level Pressure 29.93 in    
Wind  
Wind Speed 4 mph (SW)    
Max Wind Speed 15 mph    
Max Gust Speed 38 mph    
Visibility 10 miles    
Events Rain    
Averages and records for this station are not official NWS values.
T = Trace of Precipitation, MM = Missing Value Source: NWS Daily Summary

Daily Weather History Graph

Daily Weather History Graph

Search for Another Location

Airport:

Trip Planner

Search our weather history database for the weather conditions in past years. The results will help you decide how hot, cold, wet, or windy it might be!

Date:

Astronomy

Aug. 08, 2012 Rise Set
Actual Time 6:29 AM CDT 8:34 PM CDT
Civil Twilight 5:58 AM CDT 9:04 PM CDT
Nautical Twilight 5:21 AM CDT 9:41 PM CDT
Astronomical Twilight 4:41 AM CDT 10:21 PM CDT
Moon 11:44 PM CDT (8/8) 1:20 PM CDT (8/8)
Length of Visible Light 15h 05m
Length of Day
14h 04m
Waning Gibbous, 60% of the Moon is Illuminated
Aug 8
Waning Gibbous
Aug 9
Last Quarter
Aug 17
New
Aug 24
First Quarter
Aug 31
Full

Hourly Weather History & Observations

Time (CDT) Temp. Heat Index Dew Point Humidity Pressure Visibility Wind Dir Wind Speed Gust Speed Precip Events Conditions
12:15 AM 72.5 °F - 65.7 °F 79% 29.99 in 10.0 mi Calm Calm - N/A   Clear
12:35 AM 72.1 °F - 66.2 °F 82% 29.99 in 10.0 mi Calm Calm - N/A   Clear
12:55 AM 72.0 °F - 66.6 °F 83% 29.99 in 10.0 mi Calm Calm - N/A   Clear
1:15 AM 71.8 °F - 66.6 °F 84% 29.98 in 10.0 mi SSE 3.5 mph - N/A   Clear
1:35 AM 71.6 °F - 66.2 °F 83% 29.97 in 10.0 mi South 4.6 mph - N/A   Clear
1:55 AM 71.8 °F - 65.8 °F 81% 29.97 in 10.0 mi SSW 3.5 mph - N/A   Clear
2:15 AM 70.7 °F - 65.1 °F 82% 29.97 in 10.0 mi South 5.8 mph - N/A   Clear
2:35 AM 70.3 °F - 64.8 °F 82% 29.97 in 10.0 mi South 4.6 mph - N/A   Clear
2:55 AM 70.3 °F - 64.4 °F 81% 29.95 in 10.0 mi South 3.5 mph - N/A   Clear
3:15 AM 68.9 °F - 63.9 °F 84% 29.96 in 10.0 mi SSW 3.5 mph - N/A   Clear
3:35 AM 69.6 °F - 63.1 °F 80% 29.95 in 10.0 mi SW 4.6 mph - N/A   Clear
3:55 AM 68.9 °F - 63.5 °F 83% 29.95 in 10.0 mi WSW 4.6 mph - N/A   Clear
4:15 AM 69.4 °F - 63.9 °F 82% 29.95 in 10.0 mi SW 5.8 mph - N/A   Clear
4:35 AM 68.9 °F - 63.9 °F 84% 29.95 in 10.0 mi SSW 5.8 mph - N/A   Clear
4:55 AM 68.9 °F - 64.4 °F 86% 29.94 in 10.0 mi SW 4.6 mph - N/A   Clear
5:15 AM 70.2 °F - 64.4 °F 82% 29.94 in 10.0 mi Calm Calm - N/A   Clear
5:35 AM 69.8 °F - 64.4 °F 83% 29.94 in 10.0 mi SW 5.8 mph - N/A   Clear
5:55 AM 69.8 °F - 64.4 °F 83% 29.94 in 10.0 mi SW 3.5 mph - N/A   Clear
6:15 AM 69.3 °F - 64.8 °F 86% 29.95 in 10.0 mi North 4.6 mph - N/A   Clear
6:35 AM 67.1 °F - 63.7 °F 89% 29.96 in 10.0 mi North 3.5 mph - N/A   Clear
6:55 AM 66.7 °F - 63.5 °F 89% 29.97 in 10.0 mi Calm Calm - N/A   Clear
7:15 AM 67.1 °F - 64.2 °F 90% 29.97 in 10.0 mi West 3.5 mph - N/A   Clear
7:35 AM 67.5 °F - 64.4 °F 90% 29.98 in 10.0 mi Calm Calm - N/A   Clear
7:55 AM 69.3 °F - 65.1 °F 87% 29.98 in 10.0 mi Calm Calm - N/A   Clear
8:15 AM 71.4 °F - 65.8 °F 82% 29.99 in 10.0 mi Calm Calm - N/A   Clear
8:35 AM 72.1 °F - 66.7 °F 83% 30.00 in 10.0 mi Calm Calm - N/A   Clear
8:55 AM 74.5 °F - 66.0 °F 75% 29.98 in 10.0 mi Calm Calm - N/A   Clear
9:15 AM 75.9 °F - 65.7 °F 70% 29.98 in 10.0 mi Calm Calm - N/A   Clear
9:35 AM 77.5 °F - 66.2 °F 68% 29.97 in 10.0 mi South 3.5 mph - N/A   Clear
9:55 AM 80.4 °F 82.7 °F 66.7 °F 63% 29.96 in 10.0 mi South 4.6 mph - N/A   Clear
10:15 AM 82.9 °F 84.6 °F 64.9 °F 54% 29.96 in 10.0 mi South 11.5 mph - N/A   Clear
10:35 AM 85.1 °F 86.1 °F 63.5 °F 48% 29.96 in 10.0 mi South 10.4 mph 16.1 mph N/A   Clear
10:55 AM 86.9 °F 87.0 °F 61.5 °F 42% 29.95 in 10.0 mi South 11.5 mph - N/A   Clear
11:15 AM 88.2 °F 87.8 °F 60.3 °F 39% 29.94 in 10.0 mi South 6.9 mph - N/A   Clear
11:35 AM 88.5 °F 88.3 °F 60.4 °F 39% 29.94 in 10.0 mi South 6.9 mph - N/A   Clear
11:55 AM 90.0 °F 90.0 °F 61.3 °F 38% 29.94 in 10.0 mi South 9.2 mph - N/A   Clear
12:15 PM 90.7 °F 90.4 °F 60.4 °F 36% 29.93 in 10.0 mi SSE 9.2 mph - N/A   Clear
12:35 PM 91.2 °F 91.4 °F 61.3 °F 37% 29.93 in 10.0 mi South 6.9 mph - N/A   Clear
12:55 PM 92.7 °F 93.2 °F 62.2 °F 36% 29.92 in 10.0 mi SW 6.9 mph - N/A   Clear
1:15 PM 91.9 °F 92.2 °F 61.5 °F 36% 29.92 in 10.0 mi West 3.5 mph - N/A   Clear
1:35 PM 91.8 °F 91.9 °F 61.5 °F 36% 29.91 in 10.0 mi Calm Calm - N/A   Clear
1:55 PM 93.0 °F 93.4 °F 61.5 °F 35% 29.91 in 10.0 mi Calm Calm - N/A   Clear
2:15 PM 93.4 °F 93.5 °F 61.3 °F 34% 29.91 in 10.0 mi ESE 4.6 mph - N/A   Clear
2:35 PM 93.9 °F 94.4 °F 61.9 °F 34% 29.91 in 10.0 mi East 4.6 mph - N/A   Clear
2:55 PM 94.8 °F 96.2 °F 63.1 °F 35% 29.90 in 10.0 mi ESE 9.2 mph - N/A   Clear
3:15 PM 95.5 °F 97.4 °F 64.2 °F 35% 29.88 in 10.0 mi East 9.2 mph - N/A   Clear
3:35 PM 92.5 °F 94.1 °F 63.9 °F 39% 29.88 in 10.0 mi ESE 5.8 mph - N/A   Clear
3:55 PM 91.0 °F 93.4 °F 65.8 °F 43% 29.87 in 10.0 mi East 4.6 mph - N/A   Clear
4:15 PM 93.4 °F 94.7 °F 63.9 °F 37% 29.85 in 10.0 mi ESE 4.6 mph - N/A   Clear
4:35 PM 92.5 °F 95.0 °F 65.3 °F 41% 29.85 in 10.0 mi ESE 3.5 mph - N/A   Clear
4:55 PM 89.4 °F 92.7 °F 67.6 °F 48% 29.85 in 10.0 mi Calm Calm - N/A   Scattered Clouds
5:15 PM 87.1 °F 90.2 °F 67.3 °F 52% 29.86 in 10.0 mi Calm Calm - N/A   Mostly Cloudy
5:35 PM 73.9 °F - 59.5 °F 61% 29.89 in 5.0 mi NW 15.0 mph 38.0 mph 0.02 in Rain Heavy Rain
5:55 PM 75.0 °F - 63.5 °F 67% 29.86 in 10.0 mi NW 5.8 mph - 0.04 in   Mostly Cloudy
6:15 PM 84.9 °F 86.3 °F 64.4 °F 50% 29.84 in 10.0 mi WNW 8.1 mph - N/A   Scattered Clouds
6:35 PM 84.4 °F 87.3 °F 67.5 °F 57% 29.85 in 10.0 mi NNW 9.2 mph - N/A   Clear
6:55 PM 82.2 °F 84.6 °F 66.4 °F 59% 29.87 in 10.0 mi NNE 10.4 mph - N/A   Clear
7:15 PM 76.8 °F - 59.5 °F 55% 29.88 in 10.0 mi NNE 6.9 mph - N/A   Clear
7:35 PM 74.5 °F - 62.6 °F 66% 29.89 in 10.0 mi Calm Calm - N/A   Clear
7:55 PM 73.4 °F - 64.4 °F 73% 29.91 in 10.0 mi Calm Calm - N/A   Scattered Clouds
8:15 PM 73.6 °F - 63.7 °F 71% 29.92 in 10.0 mi Calm Calm - N/A   Scattered Clouds
8:35 PM 72.1 °F - 64.6 °F 77% 29.91 in 10.0 mi NW 3.5 mph - N/A   Clear
8:55 PM 72.1 °F - 63.7 °F 75% 29.91 in 10.0 mi NW 5.8 mph - N/A   Clear
9:15 PM 70.9 °F - 64.0 °F 79% 29.93 in 10.0 mi NW 4.6 mph - N/A   Clear
9:35 PM 70.2 °F - 64.0 °F 81% 29.93 in 10.0 mi NW 4.6 mph - N/A   Clear
9:55 PM 70.2 °F - 64.6 °F 82% 29.94 in 10.0 mi NNW 5.8 mph - N/A   Clear
10:15 PM 70.9 °F - 64.8 °F 81% 29.95 in 10.0 mi NNW 6.9 mph - N/A   Clear
10:35 PM 70.9 °F - 65.3 °F 82% 29.95 in 10.0 mi NNW 6.9 mph - N/A   Clear
10:55 PM 70.2 °F - 65.3 °F 85% 29.96 in 10.0 mi NNW 6.9 mph - N/A   Clear
11:15 PM 69.1 °F - 64.9 °F 87% 29.97 in 10.0 mi NNW 6.9 mph - N/A   Clear
11:35 PM 69.3 °F - 64.6 °F 85% 29.98 in 10.0 mi NNW 5.8 mph - N/A   Clear
11:55 PM 69.8 °F - 64.8 °F 84% 29.99 in 10.0 mi NNW 8.1 mph - N/A   Clear